空港情報

日本の空港の気象及び、管制情報です。
気象情報はより詳細な情報が取得できる「AVIATION WEATER CENTER」 から取得しているため、VATSIMの気象情報と若干のタイムラグが生じることがあります。

VRCのフィールド設定用空港一覧はこちらをご覧ください。

RJCG Sapporo Control

RJCW / Wakkanai

NO RADAR

RADIO

08/26 2200x45

民間 civil

過去5時間に発表されたMETARがありません。

RJER / Rishiri

NO RADAR

REMOTE

25/07 1800x45

民間 civil

過去5時間に発表されたMETARがありません。

RJEB / Monbetsu

NO RADAR

REMOTE

32/14 2000x45

民間 civil

過去5時間に発表されたMETARがありません。

RJCM / Memanbetsu

NO RADAR

TOWER

36/18 2500x45

民間 civil

過去5時間に発表されたMETARがありません。

RJEC / Asahikawa

NO RADAR

TOWER

34/16 2500x60

民間 civil

過去5時間に発表されたMETARがありません。

RJCN / Nakashibetsu

NO RADAR

RADIO

08/26 2000x45

民間 civil

過去5時間に発表されたMETARがありません。

RJCK / Kushiro

NO RADAR

TOWER

17/35 2500x45

民間 civil

過去5時間に発表されたMETARがありません。

RJCO / Sapporo

RJCO_APP

TOWER

14/32 1500x30

共用 dual

過去5時間に発表されたMETARがありません。

RJCJ / Chitose

RJCC_APP

TOWER

36R/18L 3000x60
36L/18R 2700x45

自衛隊 military

過去5時間に発表されたMETARがありません。

RJCC / NewChitose
VMC

RJCC_APP

TOWER

01L/19R 3000x60
01R/19L 3000x60

民間 civil

9999

190@3KT

30.15

RJCC 141700Z 19003KT 9999 FEW020 SCT025 BKN050 M05/M06 Q1021 RMK 1CU020 3CU025 7CU050 A3016

RJCB / Obihiro

NO RADAR

TOWER

35/17 2500x45

民間 civil

過去5時間に発表されたMETARがありません。

RJEO / Okushiri

NO RADAR

REMOTE

12/30 1500x45

民間 civil

過去5時間に発表されたMETARがありません。

RJCH / Hakodate

RJCH_APP

TOWER

12/30 3000x45

民間 civil

過去5時間に発表されたMETARがありません。

RJSA / Aomori
VMC

NO RADAR

TOWER

24/06 3000x60

民間 civil

2000

220@7KT

30.15

RJSA 141244Z 22007KT 2000 -SHSN FEW005 SCT010 BKN015 00/M00 Q1021 RMK 1ST005 3ST010 5CU015 A3017

RJSO / Ominato

RJSM_APP

TOWER

04/22 600x45

自衛隊 military

過去5時間に発表されたMETARがありません。

RJSM / Misawa

RJSM_APP

TOWER

10/28 3050x45

共用 dual

過去5時間に発表されたMETARがありません。

RJSH / Hachinohe

RJSM_APP

TOWER

25/07 2250x45

自衛隊 military

過去5時間に発表されたMETARがありません。

RJSK / Akita
VMC

NO RADAR

TOWER

10/28 2500x60

民間 civil

3000

000@2KT

30.21

RJSK 141239Z VRB02KT 3000 -SHSN BR FEW002 SCT004 BKN015 00/M00 Q1023 RMK 1ST002 3ST004 5CU015 A3022

RJSI / Hanamaki

NO RADAR

RADIO

20/02 2500x45

民間 civil

過去5時間に発表されたMETARがありません。

RJSR / Odate-Noshiro

NO RADAR

REMOTE

11/29 2000x45

民間 civil

過去5時間に発表されたMETARがありません。

RJTG Tokyo Control

RJSY / Shonai

NO RADAR

RADIO

09/27 2000x45

民間 civil

過去5時間に発表されたMETARがありません。

RJSC / Yamagata

NO RADAR

RADIO

01/19 2000x45

民間 civil

過去5時間に発表されたMETARがありません。

RJST / Matsushima

RJSS_APP

TOWER

07/25 2071x46
15/33 1500x46

自衛隊 military

過去5時間に発表されたMETARがありません。

RJSS / Sendai

RJSS_APP

TOWER

27/09 3000x45
12/30 1200x45

民間 civil

過去5時間に発表されたMETARがありません。

RJSD / Sado

NO RADAR

REMOTE

10/28 890x25

民間 civil

過去5時間に発表されたMETARがありません。

RJSN / Niigata

RJSN_APP

TOWER

10/28 2500x45
04/22 1314x45

民間 civil

過去5時間に発表されたMETARがありません。

RJSF / Fukushima

NO RADAR

RADIO

01/19 2500x60

民間 civil

過去5時間に発表されたMETARがありません。

RJAH / Ibaraki/Hyakuri
VMC

RJAH_APP

TOWER

03L/21R 2700x45
03R/21L 2700x45

共用 dual

9999

330@2KT

30.24

RJAH 141700Z 33002KT 9999 FEW035 BKN/// M03/M06 Q1024

RJTT / Tokyo
VMC

RJTT_APP

TOWER

34LR/16RL 3000x60
04/22&05/23 2500x60

民間 civil

9999

010@5KT

30.24

RJTT 141700Z 01005KT CAVOK 06/M04 Q1024 NOSIG RMK A3025

RJAA / Narita
VMC

RJTT_APP

TOWER

34L/16R 4000x60
34R/16L 2500x60

民間 civil

9999

310@2KT

30.24

RJAA 141700Z 31002KT CAVOK M02/M04 Q1024 NOSIG RMK A3025

RJTL / Shimofusa

RJTT_APP

TOWER

19/01 2250x45

自衛隊 military

過去5時間に発表されたMETARがありません。

RJTE / Tateyama
VMC

RJTT_APP

TOWER

09/27 300x45

自衛隊 military

9999

100@3KT

30.24

RJTE 141247Z 10003KT 020V140 9999 FEW030 SCT230 06/M05 Q1024 RMK 1CU030 A3026

RJTO / Oshima

NO RADAR

RADIO

03/21 1800x45

民間 civil

過去5時間に発表されたMETARがありません。

RJTK / Kisarazu

NO RADAR

TOWER

02/20 1830x45

自衛隊 military

過去5時間に発表されたMETARがありません。

RJAN / Niijima

NO RADAR

REMOTE

11/29 800x25

自衛隊 military

過去5時間に発表されたMETARがありません。

RJAZ / Kozushima

NO RADAR

REMOTE

11/29 800x25

民間 civil

過去5時間に発表されたMETARがありません。

RJTH / Hachijojima

NO RADAR

RADIO

26/08 2000x45

民間 civil

過去5時間に発表されたMETARがありません。

RJTF / Chofu

NO RADAR

Flight Service

35/17 800x30

民間 civil

過去5時間に発表されたMETARがありません。

RJTQ / Miyake

NO RADAR

REMOTE

02/20 1200x30

民間 civil

過去5時間に発表されたMETARがありません。

RJTC / Tachikawa

NO RADAR

TOWER

01/19 900x45

自衛隊 military

過去5時間に発表されたMETARがありません。

RJTA / Atsugi

NO RADAR

TOWER

01/19 2438x45

自衛隊 military

過去5時間に発表されたMETARがありません。

RJTU / Utsunomiya

RJTY_APP

TOWER

01/19 1700x45

自衛隊 military

過去5時間に発表されたMETARがありません。

RJTJ / Iruma

RJTY_APP

TOWER

17/35 2000x45

自衛隊 military

過去5時間に発表されたMETARがありません。

RJTY / Yokota
VMC

RJTY_APP

TOWER

18/36 3353x60

自衛隊 military

9999

000@0KT

30.29

RJTY 141656Z AUTO 00000KT 10SM CLR 01/M05 A3029 RMK AO2 SLP266 T00091054 FZRANO $

RJAF / Matsumoto

NO RADAR

RADIO

18/36 2000x45

民間 civil

過去5時間に発表されたMETARがありません。

RJNS / Shizuoka

NO RADAR

RADIO

30/12 2500x60

民間 civil

過去5時間に発表されたMETARがありません。

RJNY / Yaizu-Shizuhama

NO RADAR

TOWER

27/09 1500x45

自衛隊 military

過去5時間に発表されたMETARがありません。

RJNH / Hamamatsu

RJNH_APP

TOWER

09/27 2550x60

自衛隊 military

過去5時間に発表されたMETARがありません。

RJGG / Chubu
VMC

RJGG_APP

TOWER

36/18 3500x60

民間 civil

9999

350@11KT

30.27

RJGG 141700Z 35011KT 9999 FEW020 BKN160 05/M01 Q1025 NOSIG

RJNA / Nagoya

RJGG_APP

TOWER

34/16 2740x45

民間 civil

過去5時間に発表されたMETARがありません。

RJNG / Gifu

RJGG_APP

TOWER

28/10 2710x46

自衛隊 military

過去5時間に発表されたMETARがありません。

RJOE / Akeno

RJOE_APP

TOWER

13/31 500x30
04/22 500x30

自衛隊 military

過去5時間に発表されたMETARがありません。

RJNK / Komatsu
VMC

RJNK_APP

TOWER

06/24 2700x45

共用 dual

9999

140@3KT

30.32

RJNK 141700Z 14003KT 9999 -SHRA FEW020 BKN030 BKN050 02/00 Q1027

RJNW / Noto

NO RADAR

RADIO

25/07 2000x45

民間 civil

過去5時間に発表されたMETARがありません。

RJNT / Toyama

NO RADAR

TOWER

20/02 2000x45

民間 civil

過去5時間に発表されたMETARがありません。

RJNF / Fukui

NO RADAR

REMOTE

18/36 1200x30

民間 civil

過去5時間に発表されたMETARがありません。

RJBD / Nanki-Shirahama

NO RADAR

RADIO

15/33 2000x45

民間 civil

過去5時間に発表されたMETARがありません。

RJOY / Yao

RJBB_APP

TOWER

27/09 1490x45
13/31 1200x30

民間 civil

過去5時間に発表されたMETARがありません。

RJOO / Osaka

RJBB_APP

TOWER

32L/14R 3000x60
32R/14L 1830x45

民間 civil

過去5時間に発表されたMETARがありません。

RJOB / Okayama

RJBB_APP

TOWER

07/25 3000x45

民間 civil

過去5時間に発表されたMETARがありません。

RJBB / Kansai
VMC

RJBB_APP

TOWER

06R/24L 3500x60
06L/24R 4000x60

民間 civil

9999

030@6KT

30.32

RJBB 141700Z AUTO 03006KT 360V070 9999 FEW031 BKN140 OVC150 06/01 Q1027 NOSIG

RJBE / Kobe

RJBB_APP

TOWER

09/27 2500x60

民間 civil

過去5時間に発表されたMETARがありません。

RJBT / Tajima

NO RADAR

REMOTE

01/19 1200x30

民間 civil

過去5時間に発表されたMETARがありません。

RJOR / Tottori

NO RADAR

RADIO

10/28 2000x45

民間 civil

過去5時間に発表されたMETARがありません。

RJNO / Oki

NO RADAR

REMOTE

07/25 2000x45

民間 civil

過去5時間に発表されたMETARがありません。

RJOH / Miho
VMC

RJOH_APP

TOWER

25/07 2500x45

共用 dual

9999

160@3KT

30.35

RJOH 141700Z 16003KT 130V190 9999 -SHRA FEW030 BKN035 BKN050 03/01 Q1028

RJOC / Izumo

RJOH_APP

RADIO

07/25 2000x45

共用 dual

過去5時間に発表されたMETARがありません。

RJDG Fukuoka Control

RJOT / Takamatsu

RJBB_APP

TOWER

26/08 2500x60

民間 civil

過去5時間に発表されたMETARがありません。

RJOK / Kochi

RJBB_APP

TOWER

32/14 2500x45

民間 civil

過去5時間に発表されたMETARがありません。

RJOS / Tokushima

RJOS_APP

TOWER

29/11 2500x45

共用 dual

過去5時間に発表されたMETARがありません。

RJOA / Hiroshima
VMC

RJOA_APP

TOWER

10/28 3000x60

民間 civil

9999

060@6KT

30.30

RJOA 141300Z 06006KT 9999 FEW020 SCT050 BKN/// 02/M02 Q1026

RJBH / Hiroshimanishi

NO RADAR

Flight Service

04/22 1800x45

民間 civil

過去5時間に発表されたMETARがありません。

RJOI / Iwakuni
VMC

RJOI_APP

TOWER

02/20 2440x60

共用 dual

9999

310@5KT

30.35

RJOI 141655Z 31005KT 9999 FEW025 SCT050 BKN140 04/M01 A3035 RMK SLP276 T00441006

RJOM / Matsuyama

RJOI_APP

TOWER

14/32 2500x45

民間 civil

過去5時間に発表されたMETARがありません。

RJOZ / Ozuki

RJFZ_APP

TOWER

35/17 1201x61
12/30 899x46

自衛隊 military

過去5時間に発表されたMETARがありません。

RJOF / Hofu
VMC

RJFZ_APP

TOWER

30/12 1180x60
01/19 1480x45

自衛隊 military

9999

010@7KT

30.35

RJOF 141225Z 01007KT 9999 FEW025 SCT120 BKN/// 04/M00 Q1028 RMK 1CU025 3AC120 A3036

RJDC / Yamaguchi-Ube

RJFZ_APP

RADIO

07/25 2500x45

民間 civil

過去5時間に発表されたMETARがありません。

RJFR / Kitakyushu
VMC

RJFZ_APP

TOWER

18/36 2500x60

民間 civil

9999

060@8KT

30.30

RJFR 141700Z 06008KT 9999 FEW030 SCT050 BKN130 08/01 Q1026

RJFZ / Tsuiki

RJFZ_APP

TOWER

25/07 2399x46

自衛隊 military

過去5時間に発表されたMETARがありません。

RJOW / Iwami

NO RADAR

REMOTE

11/29 2000x45

民間 civil

過去5時間に発表されたMETARがありません。

RJDT / Tsushima

NO RADAR

REMOTE

32/14 1900x45

民間 civil

過去5時間に発表されたMETARがありません。

RJFF / Fukuoka
VMC

RJFF_APP

TOWER

16/34 2800x60

民間 civil

9999

140@3KT

30.30

RJFF 141700Z AUTO 14003KT 9999 NSC 04/00 Q1026 RMK A3032

RJFS / Saga
VMC

RJFF_APP

RADIO

29/11 2000x45

民間 civil

9999

290@3KT

30.30

RJFS 141700Z 29003KT 9999 FEW040 BKN100 05/03 Q1026

RJFA / Ashiya

RJFF_APP

TOWER

12/30 1640x46

自衛隊 military

過去5時間に発表されたMETARがありません。

RJDB / Iki

RJFF_APP

REMOTE

20/02 1200x30

民間 civil

過去5時間に発表されたMETARがありません。

RJFO / Oita
VMC

RJFO_APP

TOWER

01/19 3000x45

民間 civil

9999

000@2KT

30.30

RJFO 141300Z VRB02KT 9999 FEW030 SCT110 BKN150 07/00 Q1026

RJFU / Nagasaki

RJFU_APP

TOWER

32/14 3000x60

民間 civil

過去5時間に発表されたMETARがありません。

RJDU / Omura

RJFU_APP

TOWER

18/36 1200x30

自衛隊 military

過去5時間に発表されたMETARがありません。

RJFE / Fukue

NO RADAR

RADIO

03/21 2000x45

民間 civil

過去5時間に発表されたMETARがありません。

RJDO / Ojika

NO RADAR

REMOTE

03/21 800x30

民間 civil

過去5時間に発表されたMETARがありません。

RJDK / Kamigoto

NO RADAR

REMOTE

17/35 800x30

民間 civil

過去5時間に発表されたMETARがありません。

RJDA / Amakusa

NO RADAR

Flight Service

31/13 1000x30

民間 civil

過去5時間に発表されたMETARがありません。

RJFT / Kumamoto

RJFT_APP

TOWER

07/25 3000x45

民間 civil

過去5時間に発表されたMETARがありません。

RJFN / Nyutabaru

RJFM_APP

TOWER

28/10 2701x46

自衛隊 military

過去5時間に発表されたMETARがありません。

RJFM / Miyazaki

RJFM_APP

TOWER

27/09 2500x45

民間 civil

過去5時間に発表されたMETARがありません。

RJFK / Kagoshima

RJFK_APP

TOWER

34/16 3000x45

民間 civil

過去5時間に発表されたMETARがありません。

RJFY / Kanoya

RJFY_APP

TOWER

26L/08R 2250x45
26R/08L 1200x40

自衛隊 military

過去5時間に発表されたMETARがありません。

RJFG / Tanegashima

NO RADAR

RADIO

31/13 2000x45

民間 civil

過去5時間に発表されたMETARがありません。

RJFC / Yakushima

NO RADAR

REMOTE

14/32 1500x45

民間 civil

過去5時間に発表されたMETARがありません。

RORG Naha Control

ROAH / Naha
VMC

ROAH_APP

TOWER

36/18 3000x45

共用 dual

9999

030@9KT

30.12

ROAH 141700Z 03009KT CAVOK 17/10 Q1020 RMK A3013

RORA / Aguni

ROAH_APP

REMOTE

01/19 800x25

民間 civil

過去5時間に発表されたMETARがありません。

ROKJ / Kumejima

ROAH_APP

REMOTE

03/21 2000x45

民間 civil

過去5時間に発表されたMETARがありません。

RODN / Kadena
VMC

ROAH_APP

TOWER

05L/23R 3688x91
05R/23L 3688x61

自衛隊 military

9999

040@4KT

30.14

RODN 141656Z AUTO 04004KT 10SM BKN065 12/10 A3014 RMK AO2 SLP214 T01230097 $

ROTM / Futenma
VMC

ROAH_APP

TOWER

06/24 2740x45

自衛隊 military

9999

010@3KT

30.16

ROTM 141700Z AUTO 01003KT 10SM CLR 14/10 A3016 RMK AO2 SLP199 T01440100 $

RORS / Shimojishima

RORS_APP

TOWER

17/35 3000x60

民間 civil

過去5時間に発表されたMETARがありません。

ROMY / Miyako

RORS_APP

TOWER

04/22 2000x45

民間 civil

過去5時間に発表されたMETARがありません。

ROIG / New Ishigaki

RORS_APP

TOWER

22/04 2000x45

民間 civil

過去5時間に発表されたMETARがありません。

RORT / Tarama

RORS_APP

REMOTE

36/18 1500x45

民間 civil

過去5時間に発表されたMETARがありません。

RJKA / Amami

NO RADAR

RADIO

03/21 2000x45

民間 civil

過去5時間に発表されたMETARがありません。

RJKI / Kikai

NO RADAR

REMOTE

07/25 1200x30

民間 civil

過去5時間に発表されたMETARがありません。

RJKN / Tokunoshima

NO RADAR

REMOTE

19/01 2000x45

民間 civil

過去5時間に発表されたMETARがありません。

RJKB / Okierabu

NO RADAR

REMOTE

04/22 1350x45

民間 civil

過去5時間に発表されたMETARがありません。

RORY / Yoron
VMC

NO RADAR

REMOTE

32/14 1320x30

民間 civil

9999

020@13KT

30.12

RORY 141700Z AUTO 02013KT 9999 FEW022 SCT029 BKN050 18/13 Q1020

RORK / Kitadaito

NO RADAR

REMOTE

03/21 1500x45

民間 civil

過去5時間に発表されたMETARがありません。

ROMD / Minami-daito

NO RADAR

REMOTE

02/20 1500x45

民間 civil

過去5時間に発表されたMETARがありません。

ROYN / Yonaguni
VMC

NO RADAR

REMOTE

26/08 2000x45

民間 civil

9999

100@9KT

30.09

ROYN 141700Z AUTO 10009KT 9999 BKN029 BKN040 OVC043 20/15 Q1019

RORH / Hateruma

NO RADAR

REMOTE

02/20 800x25

民間 civil

過去5時間に発表されたMETARがありません。

ROKR / Kerama

NO RADAR

REMOTE

02/20 800x25

民間 civil

過去5時間に発表されたMETARがありません。